#datetime,building,power
2023-03-01T00:00:00,pkn,12.00
2023-03-01T00:02:00,pkn,10.80
2023-03-01T00:07:00,pkn,2.40
2023-03-01T00:10:00,pkn,3.60
2023-03-01T00:11:00,pkn,2.40
2023-03-01T00:12:00,pkn,2.40
2023-03-01T00:14:00,pkn,2.40
2023-03-01T00:16:00,pkn,3.60
2023-03-01T00:18:00,pkn,2.40
2023-03-01T00:19:00,pkn,4.80
2023-03-01T00:21:00,pkn,12.00
2023-03-01T00:22:00,pkn,4.80
2023-03-01T00:24:00,pkn,10.80
2023-03-01T00:26:00,pkn,10.80
2023-03-01T00:28:00,pkn,10.80
2023-03-01T00:29:00,pkn,7.20
2023-03-01T00:31:00,pkn,7.20
2023-03-01T00:32:00,pkn,1.20
2023-03-01T00:35:00,pkn,2.40
2023-03-01T00:36:00,pkn,3.60
2023-03-01T00:38:00,pkn,2.40
2023-03-01T00:39:00,pkn,2.40
2023-03-01T00:41:00,pkn,2.40
2023-03-01T00:42:00,pkn,1.20
2023-03-01T00:44:00,pkn,3.60
2023-03-01T00:45:00,pkn,1.20
2023-03-01T00:46:00,pkn,1.20
2023-03-01T00:48:00,pkn,10.80
2023-03-01T00:50:00,pkn,10.80
2023-03-01T00:51:00,pkn,6.00
2023-03-01T00:53:00,pkn,10.80
2023-03-01T00:54:00,pkn,4.80
2023-03-01T00:56:00,pkn,12.00
2023-03-01T00:58:00,pkn,8.40
2023-03-01T00:59:00,pkn,7.20
2023-03-01T01:01:00,pkn,3.60
2023-03-01T01:02:00,pkn,4.80
2023-03-01T01:03:00,pkn,2.40
2023-03-01T01:06:00,pkn,3.60
2023-03-01T01:08:00,pkn,3.60
2023-03-01T01:10:00,pkn,3.60
2023-03-01T01:12:00,pkn,2.40
2023-03-01T01:14:00,pkn,3.60
2023-03-01T01:15:00,pkn,1.20
2023-03-01T01:18:00,pkn,2.40
2023-03-01T01:19:00,pkn,2.40
2023-03-01T01:21:00,pkn,3.60
2023-03-01T01:23:00,pkn,6.00
2023-03-01T01:25:00,pkn,12.00
2023-03-01T01:27:00,pkn,9.60
2023-03-01T01:28:00,pkn,6.00
2023-03-01T01:29:00,pkn,4.80
2023-03-01T01:31:00,pkn,10.80
2023-03-01T01:33:00,pkn,8.40
2023-03-01T01:34:00,pkn,4.80
2023-03-01T01:35:00,pkn,1.20
2023-03-01T01:38:00,pkn,4.80
2023-03-01T01:39:00,pkn,1.20
2023-03-01T01:41:00,pkn,3.60
2023-03-01T01:44:00,pkn,3.60
2023-03-01T01:46:00,pkn,2.40
2023-03-01T01:48:00,pkn,3.60
2023-03-01T01:49:00,pkn,1.20
2023-03-01T01:51:00,pkn,2.40
2023-03-01T01:53:00,pkn,2.40
2023-03-01T01:54:00,pkn,1.20
2023-03-01T01:55:00,pkn,1.20
2023-03-01T01:57:00,pkn,3.60
2023-03-01T01:59:00,pkn,2.40
2023-03-01T02:01:00,pkn,10.80
2023-03-01T02:03:00,pkn,10.80
2023-03-01T02:04:00,pkn,6.00
2023-03-01T02:06:00,pkn,7.20
2023-03-01T02:07:00,pkn,9.60
2023-03-01T02:09:00,pkn,4.80
2023-03-01T02:10:00,pkn,1.20
2023-03-01T02:11:00,pkn,1.20
2023-03-01T02:13:00,pkn,2.40
2023-03-01T02:15:00,pkn,3.60
2023-03-01T02:17:00,pkn,2.40
2023-03-01T02:19:00,pkn,1.20
2023-03-01T02:20:00,pkn,3.60
2023-03-01T02:22:00,pkn,2.40
2023-03-01T02:24:00,pkn,2.40
2023-03-01T02:27:00,pkn,4.80
2023-03-01T02:29:00,pkn,2.40
2023-03-01T02:31:00,pkn,2.40
2023-03-01T02:33:00,pkn,2.40
2023-03-01T02:34:00,pkn,1.20
2023-03-01T02:36:00,pkn,3.60
2023-03-01T02:38:00,pkn,7.20
2023-03-01T02:40:00,pkn,10.80
2023-03-01T02:42:00,pkn,7.20
2023-03-01T02:43:00,pkn,8.40
2023-03-01T02:45:00,pkn,7.20
2023-03-01T02:46:00,pkn,7.20
2023-03-01T02:47:00,pkn,7.20
2023-03-01T02:49:00,pkn,6.00
2023-03-01T02:52:00,pkn,2.40
2023-03-01T02:53:00,pkn,3.60
2023-03-01T02:56:00,pkn,3.60
2023-03-01T02:57:00,pkn,1.20
2023-03-01T03:00:00,pkn,3.60
2023-03-01T03:02:00,pkn,3.60
2023-03-01T03:03:00,pkn,1.20
2023-03-01T03:05:00,pkn,2.40
2023-03-01T03:06:00,pkn,1.20
2023-03-01T03:08:00,pkn,3.60
2023-03-01T03:11:00,pkn,2.40
2023-03-01T03:12:00,pkn,3.60
2023-03-01T03:14:00,pkn,1.20
2023-03-01T03:15:00,pkn,3.60
2023-03-01T03:18:00,pkn,2.40
2023-03-01T03:19:00,pkn,2.40
2023-03-01T03:21:00,pkn,3.60
2023-03-01T03:24:00,pkn,2.40
2023-03-01T03:25:00,pkn,1.20
2023-03-01T03:26:00,pkn,2.40
2023-03-01T03:29:00,pkn,3.60
2023-03-01T03:30:00,pkn,1.20
2023-03-01T03:31:00,pkn,6.00
2023-03-01T03:33:00,pkn,12.00
2023-03-01T03:34:00,pkn,4.80
2023-03-01T03:36:00,pkn,10.80
2023-03-01T03:38:00,pkn,9.60
2023-03-01T03:40:00,pkn,3.60
2023-03-01T03:42:00,pkn,2.40
2023-03-01T03:44:00,pkn,1.20
2023-03-01T03:45:00,pkn,2.40
2023-03-01T03:46:00,pkn,1.20
2023-03-01T03:49:00,pkn,3.60
2023-03-01T03:50:00,pkn,2.40
2023-03-01T03:51:00,pkn,1.20
2023-03-01T03:53:00,pkn,2.40
2023-03-01T03:56:00,pkn,3.60
2023-03-01T03:58:00,pkn,1.20
2023-03-01T03:59:00,pkn,3.60
2023-03-01T04:01:00,pkn,2.40
2023-03-01T04:02:00,pkn,1.20
2023-03-01T04:04:00,pkn,2.40
2023-03-01T04:06:00,pkn,2.40
2023-03-01T04:08:00,pkn,2.40
2023-03-01T04:10:00,pkn,3.60
2023-03-01T04:12:00,pkn,2.40
2023-03-01T04:13:00,pkn,1.20
2023-03-01T04:14:00,pkn,2.40
2023-03-01T04:16:00,pkn,2.40
2023-03-01T04:17:00,pkn,1.20
2023-03-01T04:19:00,pkn,2.40
2023-03-01T04:20:00,pkn,1.20
2023-03-01T04:22:00,pkn,3.60
2023-03-01T04:24:00,pkn,2.40
2023-03-01T04:25:00,pkn,1.20
2023-03-01T04:26:00,pkn,2.40
2023-03-01T04:28:00,pkn,10.80
2023-03-01T04:30:00,pkn,9.60
2023-03-01T04:32:00,pkn,10.80
2023-03-01T04:34:00,pkn,10.80
2023-03-01T04:36:00,pkn,2.40
2023-03-01T04:37:00,pkn,1.20
2023-03-01T04:38:00,pkn,1.20
2023-03-01T04:40:00,pkn,2.40
2023-03-01T04:42:00,pkn,3.60
2023-03-01T04:43:00,pkn,1.20
2023-03-01T04:45:00,pkn,2.40
2023-03-01T04:47:00,pkn,2.40
2023-03-01T04:48:00,pkn,1.20
2023-03-01T04:49:00,pkn,1.20
2023-03-01T04:50:00,pkn,1.20
2023-03-01T04:51:00,pkn,1.20
2023-03-01T04:53:00,pkn,2.40
2023-03-01T04:55:00,pkn,3.60
2023-03-01T04:57:00,pkn,2.40
2023-03-01T04:59:00,pkn,2.40
2023-03-01T05:01:00,pkn,2.40
2023-03-01T05:03:00,pkn,2.40
2023-03-01T05:05:00,pkn,3.60
2023-03-01T05:07:00,pkn,2.40
2023-03-01T05:08:00,pkn,1.20
2023-03-01T05:09:00,pkn,1.20
2023-03-01T05:11:00,pkn,2.40
2023-03-01T05:13:00,pkn,3.60
2023-03-01T05:14:00,pkn,1.20
2023-03-01T05:16:00,pkn,2.40
2023-03-01T05:17:00,pkn,1.20
2023-03-01T05:19:00,pkn,3.60
2023-03-01T05:20:00,pkn,1.20
2023-03-01T05:21:00,pkn,1.20
2023-03-01T05:23:00,pkn,3.60
2023-03-01T05:25:00,pkn,2.40
2023-03-01T05:27:00,pkn,2.40
2023-03-01T05:28:00,pkn,2.40
2023-03-01T05:30:00,pkn,2.40
2023-03-01T05:32:00,pkn,2.40
2023-03-01T05:33:00,pkn,1.20
2023-03-01T05:35:00,pkn,3.60
2023-03-01T05:37:00,pkn,8.40
2023-03-01T05:39:00,pkn,10.80
2023-03-01T05:41:00,pkn,10.80
2023-03-01T05:42:00,pkn,4.80
2023-03-01T05:44:00,pkn,7.20
2023-03-01T05:46:00,pkn,2.40
2023-03-01T05:48:00,pkn,2.40
2023-03-01T05:49:00,pkn,1.20
2023-03-01T05:51:00,pkn,2.40
2023-03-01T05:53:00,pkn,2.40
2023-03-01T05:55:00,pkn,3.60
2023-03-01T05:57:00,pkn,2.40
2023-03-01T05:59:00,pkn,2.40
2023-03-01T06:01:00,pkn,2.40
2023-03-01T06:03:00,pkn,2.40
2023-03-01T06:05:00,pkn,3.60
2023-03-01T06:07:00,pkn,2.40
2023-03-01T06:09:00,pkn,3.60
2023-03-01T06:11:00,pkn,2.40
2023-03-01T06:13:00,pkn,2.40
2023-03-01T06:15:00,pkn,2.40
2023-03-01T06:17:00,pkn,2.40
2023-03-01T06:19:00,pkn,6.00
2023-03-01T06:20:00,pkn,4.80
2023-03-01T06:22:00,pkn,10.80
2023-03-01T06:24:00,pkn,3.60
2023-03-01T06:25:00,pkn,7.20
2023-03-01T06:26:00,pkn,10.80
2023-03-01T06:28:00,pkn,10.80
2023-03-01T06:29:00,pkn,4.80
2023-03-01T06:31:00,pkn,10.80
2023-03-01T06:33:00,pkn,9.60
2023-03-01T06:34:00,pkn,4.80
2023-03-01T06:36:00,pkn,2.40
2023-03-01T06:38:00,pkn,3.60
2023-03-01T06:40:00,pkn,2.40
2023-03-01T06:42:00,pkn,2.40
2023-03-01T06:43:00,pkn,1.20
2023-03-01T06:45:00,pkn,2.40
2023-03-01T06:47:00,pkn,2.40
2023-03-01T06:48:00,pkn,1.20
2023-03-01T06:50:00,pkn,12.00
2023-03-01T06:52:00,pkn,10.80
2023-03-01T06:53:00,pkn,3.60
2023-03-01T06:55:00,pkn,10.80
2023-03-01T06:57:00,pkn,9.60
2023-03-01T06:59:00,pkn,10.80
2023-03-01T07:01:00,pkn,10.80
2023-03-01T07:02:00,pkn,4.80
2023-03-01T07:04:00,pkn,9.60
2023-03-01T07:05:00,pkn,4.80
2023-03-01T07:07:00,pkn,9.60
2023-03-01T07:08:00,pkn,4.80
2023-03-01T07:09:00,pkn,6.00
2023-03-01T07:11:00,pkn,4.80
2023-03-01T07:13:00,pkn,4.80
2023-03-01T07:15:00,pkn,3.60
2023-03-01T07:17:00,pkn,2.40
2023-03-01T07:18:00,pkn,2.40
2023-03-01T07:19:00,pkn,2.40
2023-03-01T07:21:00,pkn,3.60
2023-03-01T07:23:00,pkn,6.00
2023-03-01T07:25:00,pkn,8.40
2023-03-01T07:26:00,pkn,6.00
2023-03-01T07:28:00,pkn,9.60
2023-03-01T07:29:00,pkn,4.80
2023-03-01T07:31:00,pkn,9.60
2023-03-01T07:33:00,pkn,13.20
2023-03-01T07:35:00,pkn,14.40
2023-03-01T07:37:00,pkn,14.40
2023-03-01T07:39:00,pkn,14.40
2023-03-01T07:40:00,pkn,6.00
2023-03-01T07:42:00,pkn,4.80
2023-03-01T07:44:00,pkn,1.20
2023-03-01T07:46:00,pkn,1.20
2023-03-01T07:48:00,pkn,1.20
2023-03-01T07:50:00,pkn,2.40
2023-03-01T07:51:00,pkn,1.20
2023-03-01T07:53:00,pkn,1.20
2023-03-01T07:55:00,pkn,1.20
2023-03-01T07:57:00,pkn,2.40
2023-03-01T07:59:00,pkn,1.20
2023-03-01T08:01:00,pkn,2.40
2023-03-01T08:03:00,pkn,10.80
2023-03-01T08:04:00,pkn,4.80
2023-03-01T08:05:00,pkn,7.20
2023-03-01T08:07:00,pkn,8.40
2023-03-01T08:09:00,pkn,9.60
2023-03-01T08:11:00,pkn,9.60
2023-03-01T08:12:00,pkn,4.80
2023-03-01T08:14:00,pkn,9.60
2023-03-01T08:16:00,pkn,9.60
2023-03-01T08:17:00,pkn,4.80
2023-03-01T08:19:00,pkn,14.40
2023-03-01T08:21:00,pkn,13.20
2023-03-01T08:23:00,pkn,12.00
2023-03-01T08:25:00,pkn,13.20
2023-03-01T08:26:00,pkn,4.80
2023-03-01T08:27:00,pkn,2.40
2023-03-01T08:29:00,pkn,2.40
2023-03-01T08:30:00,pkn,1.20
2023-03-01T08:32:00,pkn,2.40
2023-03-01T08:34:00,pkn,2.40
2023-03-01T08:36:00,pkn,3.60
2023-03-01T08:38:00,pkn,2.40
2023-03-01T08:39:00,pkn,1.20
2023-03-01T08:40:00,pkn,4.80
2023-03-01T08:41:00,pkn,8.40
2023-03-01T08:43:00,pkn,9.60
2023-03-01T08:45:00,pkn,9.60
2023-03-01T08:47:00,pkn,9.60
2023-03-01T08:49:00,pkn,9.60
2023-03-01T08:50:00,pkn,4.80
2023-03-01T08:52:00,pkn,9.60
2023-03-01T08:53:00,pkn,2.40
2023-03-01T08:55:00,pkn,4.80
2023-03-01T08:57:00,pkn,3.60
2023-03-01T08:59:00,pkn,1.20
2023-03-01T09:02:00,pkn,1.20
2023-03-01T09:05:00,pkn,1.20
2023-03-01T09:06:00,pkn,1.20
2023-03-01T09:08:00,pkn,1.20
2023-03-01T09:10:00,pkn,3.60
2023-03-01T09:11:00,pkn,4.80
2023-03-01T09:13:00,pkn,8.40
2023-03-01T09:15:00,pkn,9.60
2023-03-01T09:16:00,pkn,4.80
2023-03-01T09:18:00,pkn,8.40
2023-03-01T09:20:00,pkn,8.40
2023-03-01T09:22:00,pkn,3.60
2023-03-01T09:23:00,pkn,1.20
2023-03-01T09:26:00,pkn,1.20
2023-03-01T09:28:00,pkn,1.20
2023-03-01T09:30:00,pkn,1.20
2023-03-01T09:32:00,pkn,1.20
2023-03-01T09:34:00,pkn,1.20
2023-03-01T09:37:00,pkn,1.20
2023-03-01T09:38:00,pkn,1.20
2023-03-01T09:40:00,pkn,9.60
2023-03-01T09:41:00,pkn,3.60
2023-03-01T09:43:00,pkn,10.80
2023-03-01T09:44:00,pkn,3.60
2023-03-01T09:46:00,pkn,10.80
2023-03-01T09:47:00,pkn,3.60
2023-03-01T09:48:00,pkn,1.20
2023-03-01T09:49:00,pkn,8.40
2023-03-01T09:51:00,pkn,10.80
2023-03-01T09:53:00,pkn,1.20
2023-03-01T09:54:00,pkn,1.20
2023-03-01T09:56:00,pkn,2.40
2023-03-01T09:58:00,pkn,1.20
2023-03-01T10:00:00,pkn,3.60
2023-03-01T10:01:00,pkn,1.20
2023-03-01T10:03:00,pkn,3.60
2023-03-01T10:05:00,pkn,3.60
2023-03-01T10:06:00,pkn,6.00
2023-03-01T10:07:00,pkn,4.80
2023-03-01T10:08:00,pkn,3.60
2023-03-01T10:10:00,pkn,12.00
2023-03-01T10:12:00,pkn,10.80
2023-03-01T10:13:00,pkn,6.00
2023-03-01T10:15:00,pkn,10.80
2023-03-01T10:16:00,pkn,6.00
2023-03-01T10:18:00,pkn,6.00
2023-03-01T10:20:00,pkn,3.60
2023-03-01T10:22:00,pkn,4.80
2023-03-01T10:23:00,pkn,2.40
2023-03-01T10:25:00,pkn,2.40
2023-03-01T10:27:00,pkn,2.40
2023-03-01T10:29:00,pkn,2.40
2023-03-01T10:31:00,pkn,2.40
2023-03-01T10:32:00,pkn,1.20
2023-03-01T10:34:00,pkn,2.40
2023-03-01T10:35:00,pkn,1.20
2023-03-01T10:36:00,pkn,1.20
2023-03-01T10:39:00,pkn,3.60
2023-03-01T10:40:00,pkn,4.80
2023-03-01T10:42:00,pkn,8.40
2023-03-01T10:43:00,pkn,4.80
2023-03-01T10:44:00,pkn,4.80
2023-03-01T10:46:00,pkn,8.40
2023-03-01T10:48:00,pkn,6.00
2023-03-01T10:50:00,pkn,1.20
2023-03-01T10:52:00,pkn,1.20
2023-03-01T10:54:00,pkn,1.20
2023-03-01T10:56:00,pkn,1.20
2023-03-01T10:58:00,pkn,1.20
2023-03-01T11:01:00,pkn,1.20
2023-03-01T11:03:00,pkn,2.40
2023-03-01T11:05:00,pkn,8.40
2023-03-01T11:06:00,pkn,6.00
2023-03-01T11:07:00,pkn,3.60
2023-03-01T11:09:00,pkn,9.60
2023-03-01T11:10:00,pkn,3.60
2023-03-01T11:12:00,pkn,9.60
2023-03-01T11:13:00,pkn,2.40
2023-03-01T11:15:00,pkn,1.20
2023-03-01T11:16:00,pkn,1.20
2023-03-01T11:19:00,pkn,1.20
2023-03-01T11:22:00,pkn,1.20
2023-03-01T11:25:00,pkn,1.20
2023-03-01T11:26:00,pkn,1.20
2023-03-01T11:28:00,pkn,1.20
2023-03-01T11:29:00,pkn,1.20
2023-03-01T11:31:00,pkn,1.20
2023-03-01T11:33:00,pkn,1.20
2023-03-01T11:36:00,pkn,3.60
2023-03-01T11:38:00,pkn,9.60
2023-03-01T11:40:00,pkn,9.60
2023-03-01T11:42:00,pkn,8.40
2023-03-01T11:44:00,pkn,4.80
2023-03-01T11:46:00,pkn,1.20
2023-03-01T11:48:00,pkn,1.20
2023-03-01T11:51:00,pkn,1.20
2023-03-01T11:55:00,pkn,1.20
2023-03-01T11:56:00,pkn,1.20
2023-03-01T11:59:00,pkn,1.20
2023-03-01T12:01:00,pkn,1.20
2023-03-01T12:03:00,pkn,1.20
2023-03-01T12:05:00,pkn,1.20
2023-03-01T12:07:00,pkn,1.20
2023-03-01T12:08:00,pkn,3.60
2023-03-01T12:10:00,pkn,9.60
2023-03-01T12:11:00,pkn,3.60
2023-03-01T12:13:00,pkn,9.60
2023-03-01T12:15:00,pkn,9.60
2023-03-01T12:16:00,pkn,3.60
2023-03-01T12:17:00,pkn,4.80
2023-03-01T12:19:00,pkn,9.60
2023-03-01T12:21:00,pkn,8.40
2023-03-01T12:23:00,pkn,2.40
2023-03-01T12:25:00,pkn,1.20
2023-03-01T12:26:00,pkn,3.60
2023-03-01T12:28:00,pkn,3.60
2023-03-01T12:30:00,pkn,3.60
2023-03-01T12:32:00,pkn,3.60
2023-03-01T12:34:00,pkn,2.40
2023-03-01T12:36:00,pkn,3.60
2023-03-01T12:38:00,pkn,2.40
2023-03-01T12:40:00,pkn,1.20
2023-03-01T12:41:00,pkn,1.20
2023-03-01T12:43:00,pkn,2.40
2023-03-01T12:45:00,pkn,2.40
2023-03-01T12:46:00,pkn,1.20
2023-03-01T12:47:00,pkn,1.20
2023-03-01T12:49:00,pkn,2.40
2023-03-01T12:51:00,pkn,1.20
2023-03-01T12:53:00,pkn,2.40
2023-03-01T12:54:00,pkn,1.20
2023-03-01T12:56:00,pkn,1.20
2023-03-01T12:58:00,pkn,9.60
2023-03-01T12:59:00,pkn,3.60
2023-03-01T13:01:00,pkn,10.80
2023-03-01T13:03:00,pkn,10.80
2023-03-01T13:05:00,pkn,9.60
2023-03-01T13:08:00,pkn,2.40
2023-03-01T13:10:00,pkn,1.20
2023-03-01T13:12:00,pkn,2.40
2023-03-01T13:13:00,pkn,1.20
2023-03-01T13:15:00,pkn,1.20
2023-03-01T13:16:00,pkn,1.20
2023-03-01T13:18:00,pkn,1.20
2023-03-01T13:20:00,pkn,2.40
2023-03-01T13:22:00,pkn,2.40
2023-03-01T13:25:00,pkn,2.40
2023-03-01T13:27:00,pkn,1.20
2023-03-01T13:28:00,pkn,1.20
2023-03-01T13:30:00,pkn,2.40
2023-03-01T13:32:00,pkn,1.20
2023-03-01T13:33:00,pkn,1.20
2023-03-01T13:35:00,pkn,1.20
2023-03-01T13:37:00,pkn,2.40
2023-03-01T13:39:00,pkn,1.20
2023-03-01T13:41:00,pkn,2.40
2023-03-01T13:42:00,pkn,3.60
2023-03-01T13:44:00,pkn,10.80
2023-03-01T13:45:00,pkn,3.60
2023-03-01T13:46:00,pkn,4.80
2023-03-01T13:48:00,pkn,10.80
2023-03-01T13:49:00,pkn,1.20
2023-03-01T13:51:00,pkn,2.40
2023-03-01T13:53:00,pkn,2.40
2023-03-01T13:55:00,pkn,1.20
2023-03-01T13:56:00,pkn,1.20
2023-03-01T13:58:00,pkn,1.20
2023-03-01T14:00:00,pkn,2.40
2023-03-01T14:02:00,pkn,2.40
2023-03-01T14:03:00,pkn,2.40
2023-03-01T14:05:00,pkn,2.40
2023-03-01T14:07:00,pkn,2.40
2023-03-01T14:08:00,pkn,1.20
2023-03-01T14:10:00,pkn,2.40
2023-03-01T14:11:00,pkn,1.20
2023-03-01T14:13:00,pkn,2.40
2023-03-01T14:14:00,pkn,1.20
2023-03-01T14:16:00,pkn,2.40
2023-03-01T14:18:00,pkn,2.40
2023-03-01T14:20:00,pkn,2.40
2023-03-01T14:22:00,pkn,2.40
2023-03-01T14:24:00,pkn,2.40
2023-03-01T14:26:00,pkn,4.80
2023-03-01T14:27:00,pkn,6.00
2023-03-01T14:29:00,pkn,9.60
2023-03-01T14:31:00,pkn,10.80
2023-03-01T14:33:00,pkn,10.80
2023-03-01T14:34:00,pkn,1.20
2023-03-01T14:35:00,pkn,1.20
2023-03-01T14:37:00,pkn,4.80
2023-03-01T14:38:00,pkn,1.20
2023-03-01T14:40:00,pkn,2.40
2023-03-01T14:42:00,pkn,2.40
2023-03-01T14:44:00,pkn,2.40
2023-03-01T14:46:00,pkn,2.40
2023-03-01T14:48:00,pkn,2.40
2023-03-01T14:50:00,pkn,2.40
2023-03-01T14:51:00,pkn,1.20
2023-03-01T14:53:00,pkn,3.60
2023-03-01T14:54:00,pkn,1.20
2023-03-01T14:56:00,pkn,2.40
2023-03-01T14:57:00,pkn,1.20
2023-03-01T14:58:00,pkn,1.20
2023-03-01T15:00:00,pkn,2.40
2023-03-01T15:02:00,pkn,2.40
2023-03-01T15:04:00,pkn,2.40
2023-03-01T15:06:00,pkn,2.40
2023-03-01T15:08:00,pkn,2.40
2023-03-01T15:10:00,pkn,2.40
2023-03-01T15:12:00,pkn,3.60
2023-03-01T15:13:00,pkn,1.20
2023-03-01T15:15:00,pkn,2.40
2023-03-01T15:17:00,pkn,9.60
2023-03-01T15:19:00,pkn,12.00
2023-03-01T15:21:00,pkn,9.60
2023-03-01T15:22:00,pkn,6.00
2023-03-01T15:23:00,pkn,4.80
2023-03-01T15:25:00,pkn,3.60
2023-03-01T15:27:00,pkn,2.40
2023-03-01T15:28:00,pkn,1.20
2023-03-01T15:30:00,pkn,3.60
2023-03-01T15:31:00,pkn,1.20
2023-03-01T15:32:00,pkn,1.20
2023-03-01T15:34:00,pkn,3.60
2023-03-01T15:36:00,pkn,3.60
2023-03-01T15:38:00,pkn,4.80
2023-03-01T15:39:00,pkn,2.40
2023-03-01T15:41:00,pkn,3.60
2023-03-01T15:42:00,pkn,1.20
2023-03-01T15:43:00,pkn,1.20
2023-03-01T15:45:00,pkn,2.40
2023-03-01T15:47:00,pkn,2.40
2023-03-01T15:48:00,pkn,1.20
2023-03-01T15:49:00,pkn,1.20
2023-03-01T15:51:00,pkn,2.40
2023-03-01T15:52:00,pkn,1.20
2023-03-01T15:54:00,pkn,2.40
2023-03-01T15:55:00,pkn,1.20
2023-03-01T15:57:00,pkn,2.40
2023-03-01T15:58:00,pkn,1.20
2023-03-01T15:59:00,pkn,1.20
2023-03-01T16:01:00,pkn,3.60
2023-03-01T16:02:00,pkn,1.20
2023-03-01T16:04:00,pkn,2.40
2023-03-01T16:06:00,pkn,2.40
2023-03-01T16:07:00,pkn,1.20
2023-03-01T16:09:00,pkn,2.40
2023-03-01T16:11:00,pkn,2.40
2023-03-01T16:13:00,pkn,4.80
2023-03-01T16:14:00,pkn,6.00
2023-03-01T16:16:00,pkn,9.60
2023-03-01T16:17:00,pkn,6.00
2023-03-01T16:19:00,pkn,9.60
2023-03-01T16:20:00,pkn,4.80
2023-03-01T16:22:00,pkn,2.40
2023-03-01T16:23:00,pkn,2.40
2023-03-01T16:25:00,pkn,2.40
2023-03-01T16:27:00,pkn,2.40
2023-03-01T16:29:00,pkn,2.40
2023-03-01T16:31:00,pkn,2.40
2023-03-01T16:32:00,pkn,1.20
2023-03-01T16:34:00,pkn,2.40
2023-03-01T16:35:00,pkn,1.20
2023-03-01T16:37:00,pkn,2.40
2023-03-01T16:39:00,pkn,2.40
2023-03-01T16:41:00,pkn,2.40
2023-03-01T16:43:00,pkn,2.40
2023-03-01T16:45:00,pkn,2.40
2023-03-01T16:47:00,pkn,2.40
2023-03-01T16:49:00,pkn,2.40
2023-03-01T16:51:00,pkn,2.40
2023-03-01T16:53:00,pkn,2.40
2023-03-01T16:55:00,pkn,2.40
2023-03-01T16:56:00,pkn,1.20
2023-03-01T16:58:00,pkn,2.40
2023-03-01T17:00:00,pkn,3.60
2023-03-01T17:02:00,pkn,2.40
2023-03-01T17:04:00,pkn,2.40
2023-03-01T17:05:00,pkn,1.20
2023-03-01T17:07:00,pkn,2.40
2023-03-01T17:09:00,pkn,2.40
2023-03-01T17:10:00,pkn,1.20
2023-03-01T17:11:00,pkn,1.20
2023-03-01T17:13:00,pkn,2.40
2023-03-01T17:14:00,pkn,1.20
2023-03-01T17:17:00,pkn,3.60
2023-03-01T17:18:00,pkn,1.20
2023-03-01T17:20:00,pkn,2.40
2023-03-01T17:21:00,pkn,4.80
2023-03-01T17:23:00,pkn,10.80
2023-03-01T17:25:00,pkn,10.80
2023-03-01T17:27:00,pkn,10.80
2023-03-01T17:28:00,pkn,2.40
2023-03-01T17:30:00,pkn,2.40
2023-03-01T17:32:00,pkn,2.40
2023-03-01T17:33:00,pkn,1.20
2023-03-01T17:35:00,pkn,3.60
2023-03-01T17:36:00,pkn,2.40
2023-03-01T17:38:00,pkn,2.40
2023-03-01T17:39:00,pkn,1.20
2023-03-01T17:41:00,pkn,2.40
2023-03-01T17:42:00,pkn,2.40
2023-03-01T17:44:00,pkn,2.40
2023-03-01T17:46:00,pkn,2.40
2023-03-01T17:47:00,pkn,1.20
2023-03-01T17:48:00,pkn,1.20
2023-03-01T17:50:00,pkn,2.40
2023-03-01T17:52:00,pkn,3.60
2023-03-01T17:53:00,pkn,1.20
2023-03-01T17:54:00,pkn,1.20
2023-03-01T17:56:00,pkn,2.40
2023-03-01T17:57:00,pkn,2.40
2023-03-01T17:59:00,pkn,2.40
2023-03-01T18:01:00,pkn,2.40
2023-03-01T18:03:00,pkn,3.60
2023-03-01T18:05:00,pkn,2.40
2023-03-01T18:07:00,pkn,3.60
2023-03-01T18:08:00,pkn,1.20
2023-03-01T18:10:00,pkn,2.40
2023-03-01T18:12:00,pkn,6.00
2023-03-01T18:13:00,pkn,3.60
2023-03-01T18:15:00,pkn,6.00
2023-03-01T18:17:00,pkn,6.00
2023-03-01T18:18:00,pkn,3.60
2023-03-01T18:20:00,pkn,6.00
2023-03-01T18:21:00,pkn,2.40
2023-03-01T18:23:00,pkn,7.20
2023-03-01T18:25:00,pkn,6.00
2023-03-01T18:27:00,pkn,7.20
2023-03-01T18:29:00,pkn,12.00
2023-03-01T18:31:00,pkn,14.40
2023-03-01T18:33:00,pkn,13.20
2023-03-01T18:35:00,pkn,8.40
2023-03-01T18:37:00,pkn,3.60
2023-03-01T18:39:00,pkn,3.60
2023-03-01T18:41:00,pkn,3.60
2023-03-01T18:43:00,pkn,3.60
2023-03-01T18:44:00,pkn,1.20
2023-03-01T18:46:00,pkn,3.60
2023-03-01T18:48:00,pkn,3.60
2023-03-01T18:49:00,pkn,2.40
2023-03-01T18:50:00,pkn,1.20
2023-03-01T18:52:00,pkn,3.60
2023-03-01T18:54:00,pkn,3.60
2023-03-01T18:56:00,pkn,3.60
2023-03-01T18:57:00,pkn,1.20
2023-03-01T18:59:00,pkn,4.80
2023-03-01T19:01:00,pkn,3.60
2023-03-01T19:02:00,pkn,1.20
2023-03-01T19:04:00,pkn,3.60
2023-03-01T19:05:00,pkn,2.40
2023-03-01T19:07:00,pkn,3.60
2023-03-01T19:08:00,pkn,1.20
2023-03-01T19:10:00,pkn,3.60
2023-03-01T19:12:00,pkn,3.60
2023-03-01T19:14:00,pkn,3.60
2023-03-01T19:16:00,pkn,3.60
2023-03-01T19:18:00,pkn,4.80
2023-03-01T19:19:00,pkn,1.20
2023-03-01T19:21:00,pkn,3.60
2023-03-01T19:23:00,pkn,3.60
2023-03-01T19:24:00,pkn,2.40
2023-03-01T19:26:00,pkn,3.60
2023-03-01T19:28:00,pkn,3.60
2023-03-01T19:29:00,pkn,1.20
2023-03-01T19:31:00,pkn,3.60
2023-03-01T19:32:00,pkn,2.40
2023-03-01T19:34:00,pkn,3.60
2023-03-01T19:36:00,pkn,2.40
2023-03-01T19:37:00,pkn,6.00
2023-03-01T19:38:00,pkn,4.80
2023-03-01T19:40:00,pkn,12.00
2023-03-01T19:42:00,pkn,10.80
2023-03-01T19:44:00,pkn,10.80
2023-03-01T19:46:00,pkn,3.60
2023-03-01T19:48:00,pkn,3.60
2023-03-01T19:49:00,pkn,1.20
2023-03-01T19:51:00,pkn,3.60
2023-03-01T19:52:00,pkn,1.20
2023-03-01T19:54:00,pkn,3.60
2023-03-01T19:55:00,pkn,2.40
2023-03-01T19:57:00,pkn,2.40
2023-03-01T19:58:00,pkn,2.40
2023-03-01T19:59:00,pkn,1.20
2023-03-01T20:01:00,pkn,3.60
2023-03-01T20:02:00,pkn,1.20
2023-03-01T20:04:00,pkn,3.60
2023-03-01T20:06:00,pkn,3.60
2023-03-01T20:08:00,pkn,3.60
2023-03-01T20:10:00,pkn,2.40
2023-03-01T20:12:00,pkn,3.60
2023-03-01T20:14:00,pkn,3.60
2023-03-01T20:15:00,pkn,1.20
2023-03-01T20:17:00,pkn,3.60
2023-03-01T20:19:00,pkn,2.40
2023-03-01T20:21:00,pkn,3.60
2023-03-01T20:23:00,pkn,3.60
2023-03-01T20:24:00,pkn,1.20
2023-03-01T20:26:00,pkn,3.60
2023-03-01T20:28:00,pkn,2.40
2023-03-01T20:29:00,pkn,2.40
2023-03-01T20:31:00,pkn,2.40
2023-03-01T20:32:00,pkn,2.40
2023-03-01T20:34:00,pkn,2.40
2023-03-01T20:36:00,pkn,3.60
2023-03-01T20:37:00,pkn,1.20
2023-03-01T20:39:00,pkn,3.60
2023-03-01T20:41:00,pkn,2.40
2023-03-01T20:42:00,pkn,1.20
2023-03-01T20:44:00,pkn,3.60
2023-03-01T20:46:00,pkn,3.60
2023-03-01T20:48:00,pkn,2.40
2023-03-01T20:49:00,pkn,2.40
2023-03-01T20:50:00,pkn,1.20
2023-03-01T20:51:00,pkn,1.20
2023-03-01T20:53:00,pkn,3.60
2023-03-01T20:55:00,pkn,4.80
2023-03-01T20:57:00,pkn,9.60
2023-03-01T20:59:00,pkn,12.00
2023-03-01T21:01:00,pkn,10.80
2023-03-01T21:03:00,pkn,3.60
2023-03-01T21:04:00,pkn,1.20
2023-03-01T21:06:00,pkn,3.60
2023-03-01T21:08:00,pkn,3.60
2023-03-01T21:10:00,pkn,2.40
2023-03-01T21:12:00,pkn,3.60
2023-03-01T21:14:00,pkn,3.60
2023-03-01T21:15:00,pkn,2.40
2023-03-01T21:16:00,pkn,1.20
2023-03-01T21:18:00,pkn,3.60
2023-03-01T21:20:00,pkn,4.80
2023-03-01T21:21:00,pkn,1.20
2023-03-01T21:23:00,pkn,3.60
2023-03-01T21:25:00,pkn,7.20
2023-03-01T21:26:00,pkn,7.20
2023-03-01T21:28:00,pkn,12.00
2023-03-01T21:29:00,pkn,6.00
2023-03-01T21:30:00,pkn,4.80
2023-03-01T21:31:00,pkn,7.20
2023-03-01T21:33:00,pkn,12.00
2023-03-01T21:34:00,pkn,4.80
2023-03-01T21:36:00,pkn,12.00
2023-03-01T21:38:00,pkn,10.80
2023-03-01T21:40:00,pkn,7.20
2023-03-01T21:42:00,pkn,3.60
2023-03-01T21:44:00,pkn,3.60
2023-03-01T21:45:00,pkn,1.20
2023-03-01T21:46:00,pkn,2.40
2023-03-01T21:48:00,pkn,2.40
2023-03-01T21:50:00,pkn,3.60
2023-03-01T21:52:00,pkn,3.60
2023-03-01T21:54:00,pkn,3.60
2023-03-01T21:55:00,pkn,1.20
2023-03-01T21:57:00,pkn,6.00
2023-03-01T21:59:00,pkn,12.00
2023-03-01T22:01:00,pkn,10.80
2023-03-01T22:02:00,pkn,6.00
2023-03-01T22:04:00,pkn,12.00
2023-03-01T22:06:00,pkn,10.80
2023-03-01T22:07:00,pkn,6.00
2023-03-01T22:09:00,pkn,10.80
2023-03-01T22:11:00,pkn,12.00
2023-03-01T22:12:00,pkn,2.40
2023-03-01T22:14:00,pkn,3.60
2023-03-01T22:15:00,pkn,1.20
2023-03-01T22:17:00,pkn,3.60
2023-03-01T22:18:00,pkn,1.20
2023-03-01T22:20:00,pkn,3.60
2023-03-01T22:22:00,pkn,3.60
2023-03-01T22:24:00,pkn,2.40
2023-03-01T22:26:00,pkn,2.40
2023-03-01T22:27:00,pkn,1.20
2023-03-01T22:29:00,pkn,9.60
2023-03-01T22:30:00,pkn,7.20
2023-03-01T22:32:00,pkn,9.60
2023-03-01T22:34:00,pkn,10.80
2023-03-01T22:36:00,pkn,10.80
2023-03-01T22:37:00,pkn,4.80
2023-03-01T22:38:00,pkn,4.80
2023-03-01T22:40:00,pkn,3.60
2023-03-01T22:41:00,pkn,1.20
2023-03-01T22:43:00,pkn,2.40
2023-03-01T22:44:00,pkn,2.40
2023-03-01T22:45:00,pkn,1.20
2023-03-01T22:47:00,pkn,2.40
2023-03-01T22:49:00,pkn,3.60
2023-03-01T22:50:00,pkn,1.20
2023-03-01T22:52:00,pkn,9.60
2023-03-01T22:53:00,pkn,4.80
2023-03-01T22:55:00,pkn,10.80
2023-03-01T22:57:00,pkn,10.80
2023-03-01T22:58:00,pkn,4.80
2023-03-01T22:59:00,pkn,7.20
2023-03-01T23:01:00,pkn,9.60
2023-03-01T23:02:00,pkn,6.00
2023-03-01T23:04:00,pkn,9.60
2023-03-01T23:06:00,pkn,12.00
2023-03-01T23:07:00,pkn,6.00
2023-03-01T23:08:00,pkn,3.60
2023-03-01T23:10:00,pkn,2.40
2023-03-01T23:11:00,pkn,2.40
2023-03-01T23:13:00,pkn,2.40
2023-03-01T23:15:00,pkn,2.40
2023-03-01T23:16:00,pkn,1.20
2023-03-01T23:17:00,pkn,1.20
2023-03-01T23:19:00,pkn,3.60
2023-03-01T23:21:00,pkn,6.00
2023-03-01T23:23:00,pkn,12.00
2023-03-01T23:24:00,pkn,6.00